When you browse on this site, cookies collect data to enhance your experience and personalize the content and advertising you see.
Visit our Privacy Policy to learn more. By continuing to use the site, you agree to this use of cookies and data.
EN

Hourly Weather Gogolczyn

Today, 23 September, Wednesday

Time Temperature Precipitation Wind Pressure Humidity
00:00 +16°C° 0 mm 2 mps 743 mmHg 73%
01:00 +16°C° 0 mm 2 mps 743 mmHg 76%
02:00 +16°C° 0 mm 2 mps 743 mmHg 78%
03:00 +15°C° 0 mm 2 mps 743 mmHg 80%
04:00 +15°C° 0 mm 2 mps 743 mmHg 83%
05:00 +15°C° 0 mm 2 mps 743 mmHg 82%
06:00 +16°C° 0 mm 2 mps 743 mmHg 81%
07:00 +16°C° 0 mm 3 mps 743 mmHg 76%
08:00 +18°C° 0 mm 3 mps 743 mmHg 70%
09:00 +20°C° 0 mm 3 mps 742 mmHg 63%
10:00 +22°C° 0 mm 3 mps 742 mmHg 56%
11:00 +23°C° 0 mm 4 mps 742 mmHg 52%
12:00 +26°C° 0 mm 4 mps 742 mmHg 49%
13:00 +27°C° 0 mm 4 mps 742 mmHg 45%
14:00 +27°C° 0 mm 3 mps 742 mmHg 47%
15:00 +26°C° 0 mm 3 mps 742 mmHg 49%
16:00 +26°C° 0 mm 2 mps 741 mmHg 52%
17:00 +24°C° 0.1 mm 2 mps 741 mmHg 58%
18:00 +21°C° 0.1 mm 2 mps 741 mmHg 64%
19:00 +19°C° 0.1 mm 2 mps 741 mmHg 70%
20:00 +19°C° 0.5 mm 2 mps 741 mmHg 73%
21:00 +18°C° 0.5 mm 2 mps 741 mmHg 77%
22:00 +18°C° 0.5 mm 2 mps 741 mmHg 80%
23:00 +17°C° 0 mm 2 mps 741 mmHg 82%

Tomorrow, 24 September, Thursday

Time Temperature Precipitation Wind Pressure Humidity
00:00 +17°C° 0 mm 2 mps 741 mmHg 83%
01:00 +17°C° 0 mm 2 mps 741 mmHg 85%
02:00 +16°C° 0 mm 2 mps 740 mmHg 85%
03:00 +16°C° 0 mm 2 mps 740 mmHg 86%
04:00 +16°C° 0 mm 2 mps 740 mmHg 86%
05:00 +16°C° 0 mm 3 mps 740 mmHg 81%
06:00 +16°C° 0 mm 3 mps 740 mmHg 76%
07:00 +16°C° 0 mm 3 mps 740 mmHg 72%
08:00 +17°C° 0 mm 4 mps 740 mmHg 67%
09:00 +19°C° 0 mm 5 mps 740 mmHg 63%
10:00 +21°C° 0 mm 5 mps 741 mmHg 59%
11:00 +21°C° 0 mm 5 mps 741 mmHg 57%
12:00 +22°C° 0 mm 5 mps 741 mmHg 56%
13:00 +23°C° 0 mm 5 mps 741 mmHg 55%
14:00 +22°C° 0.5 mm 4 mps 741 mmHg 60%
15:00 +21°C° 0.5 mm 3 mps 741 mmHg 65%
16:00 +21°C° 0.5 mm 3 mps 741 mmHg 70%
17:00 +19°C° 0.2 mm 2 mps 741 mmHg 75%
18:00 +18°C° 0.2 mm 2 mps 742 mmHg 81%
19:00 +16°C° 0.2 mm 1 mps 742 mmHg 86%
20:00 +16°C° 0 mm 1 mps 742 mmHg 87%
21:00 +15°C° 0 mm 1 mps 742 mmHg 88%
22:00 +15°C° 0 mm 1 mps 742 mmHg 88%
23:00 +15°C° 0 mm 1 mps 741 mmHg 89%

Day after tomorrow, 25 September, Friday

Time Temperature Precipitation Wind Pressure Humidity
00:00 +14°C° 0 mm 2 mps 741 mmHg 91%
01:00 +14°C° 0 mm 2 mps 741 mmHg 92%
02:00 +14°C° 0 mm 2 mps 740 mmHg 91%
03:00 +13°C° 0 mm 3 mps 739 mmHg 91%
04:00 +13°C° 0 mm 3 mps 739 mmHg 91%
05:00 +14°C° 0 mm 3 mps 738 mmHg 89%
06:00 +14°C° 0 mm 3 mps 738 mmHg 86%
07:00 +15°C° 0 mm 4 mps 737 mmHg 84%
08:00 +17°C° 0.2 mm 4 mps 736 mmHg 81%
09:00 +17°C° 0.2 mm 5 mps 736 mmHg 77%
10:00 +19°C° 0.2 mm 5 mps 735 mmHg 74%
11:00 +17°C° 1.4 mm 5 mps 734 mmHg 78%
12:00 +16°C° 1.4 mm 6 mps 734 mmHg 83%
13:00 +15°C° 1.4 mm 6 mps 734 mmHg 87%
14:00 +14°C° 0.7 mm 6 mps 734 mmHg 87%
15:00 +14°C° 0.7 mm 5 mps 734 mmHg 87%
16:00 +13°C° 0.7 mm 5 mps 734 mmHg 87%
17:00 +13°C° 0 mm 5 mps 734 mmHg 87%
18:00 +12°C° 0 mm 5 mps 735 mmHg 87%
19:00 +12°C° 0 mm 5 mps 735 mmHg 87%
20:00 +11°C° 0 mm 4 mps 736 mmHg 86%
21:00 +10°C° 0 mm 3 mps 736 mmHg 86%
22:00 +9°C° 0 mm 3 mps 737 mmHg 86%
23:00 +9°C° 0 mm 2 mps 737 mmHg 84%

26 September, Saturday

Time Temperature Precipitation Wind Pressure Humidity
00:00 +9°C° 0 mm 2 mps 737 mmHg 83%
01:00 +9°C° 0 mm 2 mps 737 mmHg 81%
02:00 +8°C° 0 mm 2 mps 737 mmHg 82%
03:00 +8°C° 0 mm 2 mps 737 mmHg 82%
04:00 +9°C° 0 mm 1 mps 737 mmHg 83%
05:00 +9°C° 0 mm 1 mps 737 mmHg 82%
06:00 +9°C° 0 mm 1 mps 738 mmHg 81%
07:00 +9°C° 0 mm 1 mps 738 mmHg 81%
08:00 +10°C° 0 mm 1 mps 738 mmHg 77%
09:00 +11°C° 0 mm 1 mps 738 mmHg 74%
10:00 +12°C° 0 mm 1 mps 738 mmHg 70%
11:00 +12°C° 0.8 mm 1 mps 738 mmHg 74%
12:00 +12°C° 0.8 mm 2 mps 738 mmHg 78%
13:00 +10°C° 0.8 mm 2 mps 738 mmHg 82%
14:00 +10°C° 2.1 mm 2 mps 738 mmHg 85%
15:00 +10°C° 2.1 mm 3 mps 738 mmHg 88%
16:00 +8°C° 2.1 mm 4 mps 737 mmHg 91%
17:00 +8°C° 1 mm 4 mps 737 mmHg 92%
18:00 +8°C° 1 mm 4 mps 737 mmHg 92%
19:00 +8°C° 1 mm 4 mps 738 mmHg 92%
20:00 +8°C° 0.4 mm 4 mps 737 mmHg 92%
21:00 +8°C° 0.4 mm 4 mps 737 mmHg 91%
22:00 +8°C° 0.4 mm 4 mps 737 mmHg 91%
23:00 +8°C° 0.9 mm 4 mps 737 mmHg 92%

27 September, Sunday

Time Temperature Precipitation Wind Pressure Humidity
00:00 +8°C° 0.9 mm 5 mps 736 mmHg 93%
01:00 +8°C° 0.9 mm 5 mps 736 mmHg 93%
02:00 +8°C° 3.2 mm 6 mps 735 mmHg 93%
03:00 +9°C° 3.2 mm 7 mps 734 mmHg 93%
04:00 +9°C° 3.2 mm 8 mps 734 mmHg 93%
05:00 +9°C° 3.5 mm 8 mps 733 mmHg 94%
06:00 +9°C° 3.5 mm 8 mps 733 mmHg 94%
07:00 +9°C° 3.5 mm 8 mps 732 mmHg 95%
08:00 +9°C° 2.8 mm 8 mps 732 mmHg 95%
09:00 +10°C° 2.8 mm 7 mps 732 mmHg 95%
10:00 +10°C° 2.8 mm 6 mps 732 mmHg 95%
11:00 +10°C° 0.4 mm 6 mps 732 mmHg 94%
12:00 +10°C° 0.4 mm 6 mps 732 mmHg 93%
13:00 +10°C° 0.4 mm 6 mps 733 mmHg 92%
14:00 +9°C° 0.1 mm 6 mps 733 mmHg 92%
15:00 +8°C° 0.1 mm 6 mps 733 mmHg 92%
16:00 +7°C° 0.1 mm 6 mps 733 mmHg 93%
17:00 +7°C° 0.5 mm 6 mps 734 mmHg 93%
18:00 +7°C° 0.5 mm 5 mps 734 mmHg 94%
19:00 +6°C° 0.5 mm 5 mps 734 mmHg 94%
20:00 +6°C° 0.6 mm 5 mps 735 mmHg 94%
21:00 +5°C° 0.6 mm 6 mps 735 mmHg 93%
22:00 +5°C° 0.6 mm 6 mps 736 mmHg 93%
23:00 +7°C° 0 mm 6 mps 737 mmHg 92%

28 September, Monday

Time Temperature Precipitation Wind Pressure Humidity
00:00 +7°C° 0 mm 5 mps 737 mmHg 91%
01:00 +7°C° 0 mm 5 mps 738 mmHg 91%
02:00 +6°C° 0 mm 5 mps 738 mmHg 90%
03:00 +6°C° 0 mm 4 mps 739 mmHg 90%
04:00 +6°C° 0 mm 4 mps 739 mmHg 89%
05:00 +5°C° 0 mm 4 mps 740 mmHg 89%
06:00 +5°C° 0 mm 5 mps 740 mmHg 88%
07:00 +5°C° 0 mm 5 mps 741 mmHg 87%
08:00 +6°C° 0 mm 5 mps 741 mmHg 81%
09:00 +7°C° 0 mm 6 mps 741 mmHg 75%
10:00 +9°C° 0 mm 6 mps 741 mmHg 69%
11:00 +9°C° 0 mm 6 mps 741 mmHg 66%
12:00 +10°C° 0 mm 6 mps 742 mmHg 63%
13:00 +11°C° 0 mm 6 mps 742 mmHg 60%
14:00 +10°C° 0 mm 5 mps 742 mmHg 63%
15:00 +10°C° 0 mm 5 mps 742 mmHg 67%
16:00 +10°C° 0 mm 4 mps 743 mmHg 71%
17:00 +10°C° 0 mm 4 mps 743 mmHg 71%
18:00 +8°C° 0 mm 4 mps 743 mmHg 71%
19:00 +9°C° 0 mm 3 mps 744 mmHg 71%
20:00 +9°C° 0 mm 3 mps 744 mmHg 73%
21:00 +8°C° 0 mm 3 mps 744 mmHg 75%
22:00 +7°C° 0 mm 2 mps 744 mmHg 77%
23:00 +7°C° 0 mm 2 mps 744 mmHg 78%
Show more